Helicity
98 101 109 111 113 100 99 96 83 65 50 50 59 55 61 69 76 76 80 115 132 159 172 170 171 214 223 213 229 176 158 180 165 151 141 126 99 77 69 65 55 43 43
127 128 140 126 111 102 92 74 61 53 46 39 54 64 57 57 70 98 111 144 207 230 224 226 225 231 221 214 226 266 273 239 209 185 179 177 173 177 140 116 105 100 85
156 145 123 113 111 101 84 74 74 70 72 79 62 48 63 93 121 141 153 171 185 215 223 233 225 222 216 235 206 213 226 240 218 192 163 185 191 215 193 196 174 157 139
148 139 135 126 100 96 83 76 71 75 69 34 40 71 72 96 141 177 163 165 138 142 159 207 198 196 198 211 204 190 165 150 150 176 210 200 180 176 224 247 236 223 185
138 143 123 110 102 96 93 75 58 39 21 41 54 80 86 100 131 116 147 136 118 118 132 168 165 172 181 181 184 173 175 178 201 194 187 145 146 178 195 205 205 212 211
156 139 128 118 96 79 73 56 46 39 25 23 41 76 77 95 113 129 113 103 100 102 125 106 90 123 167 170 200 213 213 214 203 228 221 211 199 167 142 136 168 211 212
157 139 108 94 69 55 33 35 31 54 39 36 21 56 73 100 114 140 57 92 65 110 98 71 104 117 113 161 189 218 221 211 252 234 247 253 261 261 234 214 188 119 156
142 119 88 73 68 49 56 51 45 32 30 31 9 21 53 68 119 37 99 89 91 60 48 74 93 124 135 130 144 199 228 213 275 236 246 258 267 254 253 242 228 211 183
134 109 90 63 49 37 40 34 32 34 31 38 55 38 50 78 67 42 76 97 55 51 58 78 96 133 149 145 169 189 219 290 302 274 302 281 271 258 239 225 199 191 200
134 110 84 51 36 25 40 29 37 27 29 46 55 105 90 99 105 88 78 74 39 50 49 80 102 128 131 151 165 201 243 316 332 337 309 273 236 206 193 179 181 184 187
133 104 76 56 46 32 32 50 56 70 64 75 79 81 86 96 91 132 106 68 45 50 59 75 111 126 141 155 173 196 263 291 308 262 222 199 182 180 185 202 197 184 161
120 109 93 74 58 51 56 63 72 86 95 109 107 103 93 88 95 89 115 115 112 110 129 128 108 137 144 163 171 206 204 168 148 168 139 130 159 173 184 174 146 136 141
120 113 100 81 62 63 76 89 95 110 109 116 109 102 100 100 111 120 129 123 131 144 139 184 134 141 177 185 189 189 154 137 102 94 107 123 146 142 166 160 154 161 149
153 136 113 101 97 98 105 115 114 116 111 114 106 98 95 108 127 145 155 146 123 157 173 202 177 156 156 189 176 150 152 95 97 89 99 113 121 138 133 142 162 164 172
177 148 137 127 119 127 137 135 121 123 120 113 102 95 108 115 125 139 161 180 205 235 208 221 199 167 169 173 147 130 145 96 85 94 102 105 102 113 118 126 147 145 132
193 177 162 154 156 151 148 145 133 130 123 119 109 113 122 134 134 137 156 163 188 234 339 236 199 173 168 167 146 127 146 81 92 90 84 72 68 81 100 95 96 96 100
221 200 177 174 162 156 160 151 144 127 130 113 118 120 122 128 149 147 134 152 190 229 288 241 214 174 152 130 124 100 100 128 102 38 47 47 73 67 42 53 59 65 31
226 198 194 183 171 167 152 152 143 128 114 115 116 128 133 153 140 128 150 171 212 237 262 236 198 191 174 145 112 126 64 63 59 10 9 47 38 30 48 56 47 43 25
229 216 203 185 174 159 149 143 127 112 112 118 124 139 140 137 154 169 182 210 202 189 204 218 226 217 173 153 135 97 59 24 6 -15 24 37 22 39 44 29 18 10 16
229 216 196 180 169 148 135 120 112 110 114 127 146 153 153 182 201 195 187 176 195 191 187 202 218 190 188 142 134 103 40 16 34 58 54 56 48 38 29 38 31 35 34
220 204 189 171 160 141 118 118 112 114 129 145 140 152 178 188 185 180 190 185 164 179 178 196 179 186 184 126 104 92 108 87 97 134 108 104 109 150 143 67 47 16 9
219 189 180 174 154 121 92 116 141 151 147 133 147 159 183 168 154 114 108 67 88 131 141 155 202 184 171 173 149 127 89 -70 -18 133 151 145 145 146 141 143 62 12 -0
191 198 184 142 124 109 93 125 144 153 130 138 162 178 184 157 122 162 91 59 79 107 141 143 175 205 132 110 73 65 88 124 116 141 34 75 153 157 167 153 88 73 51
197 178 141 121 112 105 118 123 111 146 149 159 169 167 154 137 134 85 110 150 121 103 106 130 133 129 116 58 35 49 28 66 170 194 108 210 202 226 206 218 175 130 80
157 131 121 108 107 109 106 105 135 160 175 157 168 160 122 101 70 52 128 116 116 116 90 51 54 37 45 37 26 21 35 41 123 164 146 181 217 206 193 265 232 139 93
127 123 106 108 101 114 98 114 136 160 169 160 150 134 77 89 51 72 99 112 110 88 99 98 65 60 68 88 35 38 55 101 157 204 174 173 172 140 117 238 132 134 99
Wind_Speed
31 33 35 38 42 41 44 48 52 55 57 59 59 61 62 64 64 60 55 58 55 55 56 55 54 54 58 57 55 52 55 55 55 56 57 60 64 68 70 71 72 72 70
29 32 35 39 41 43 46 50 54 57 59 62 64 64 62 65 58 55 54 55 54 56 55 52 56 57 59 58 56 56 58 59 59 60 61 61 63 65 65 65 69 74 79
28 32 36 40 43 46 48 54 59 60 63 66 66 62 61 61 52 54 54 54 55 57 56 59 60 61 62 60 63 63 64 66 67 66 67 67 69 70 70 69 70 71 74
30 33 36 41 44 49 54 58 61 62 64 66 65 61 62 53 47 56 54 57 55 58 58 62 63 65 63 68 68 67 69 71 70 69 68 71 73 72 71 72 73 76 76
30 33 37 42 47 53 57 59 60 61 62 68 65 64 60 47 46 55 56 59 57 62 60 65 67 68 68 70 69 71 71 70 69 69 71 71 72 73 76 78 79 80 80
30 35 39 45 50 54 58 59 58 59 55 68 64 67 58 44 47 56 56 62 60 65 63 70 70 71 71 71 74 75 75 78 78 75 77 78 79 80 82 83 84 87 88
32 37 42 47 51 54 55 57 56 59 57 70 60 66 53 51 48 53 61 67 68 69 66 74 75 74 74 74 79 80 81 80 74 78 80 80 82 85 86 88 89 89 92
33 38 42 48 52 53 55 57 59 59 59 67 68 62 67 62 50 73 64 65 72 72 76 77 80 78 75 77 82 83 85 75 78 82 83 85 88 91 93 95 98 100 100
35 40 44 47 50 52 55 56 58 62 64 63 64 66 71 72 89 56 76 62 82 72 81 82 82 80 77 85 88 86 83 81 87 88 88 92 96 100 103 106 108 109 111
36 41 44 47 50 52 55 57 59 61 61 68 61 66 61 66 80 91 69 86 71 88 85 87 86 83 89 86 91 85 81 89 92 93 98 101 106 109 110 111 113 114 116
38 41 44 47 50 52 55 58 61 64 64 66 68 71 70 71 67 79 104 93 90 87 90 87 89 94 90 92 88 80 89 94 99 101 104 110 112 111 111 113 115 116 118
38 42 45 48 51 53 56 59 62 65 67 69 72 73 75 76 83 83 93 102 106 100 96 100 92 92 91 88 83 90 93 96 99 108 108 105 106 107 109 112 114 114 116
40 44 47 50 52 55 58 61 65 69 70 75 74 76 73 73 74 79 92 105 112 110 100 91 89 89 90 92 88 93 96 103 104 103 104 104 106 106 108 111 111 113 115
41 44 47 51 55 58 61 64 68 72 72 76 77 77 73 73 76 81 91 105 125 110 110 104 95 93 91 91 89 100 102 100 103 104 104 104 106 108 111 112 113 113 113
43 46 50 53 57 61 65 69 73 77 77 76 78 75 73 77 79 83 87 90 100 124 131 109 106 99 96 97 96 96 98 97 100 98 98 104 109 111 115 120 121 120 117
45 49 53 57 61 65 69 73 77 78 78 79 77 78 79 80 85 87 91 90 90 101 123 118 115 108 102 99 100 101 95 96 89 92 101 106 115 119 119 120 119 113 109
49 54 57 61 65 71 75 77 79 78 81 82 81 81 83 84 90 94 94 93 97 98 114 124 114 109 114 111 103 97 90 85 90 97 104 112 113 105 101 99 99 102 102
52 56 60 65 70 74 76 79 80 81 83 85 87 87 87 88 93 95 97 102 103 101 105 119 122 119 109 104 103 97 89 93 96 100 108 104 99 94 90 90 90 92 90
55 59 64 69 74 76 78 77 80 82 83 86 89 90 90 90 99 101 105 106 104 99 104 111 115 106 102 99 103 93 103 104 99 101 103 94 86 85 89 90 82 78 79
58 63 67 71 73 76 76 79 81 84 86 87 90 91 90 93 102 105 106 105 104 108 104 102 102 100 101 95 88 100 111 102 101 94 87 82 93 93 81 78 82 87 86
60 65 69 72 74 76 78 82 84 86 90 93 92 93 93 93 98 99 102 105 104 101 99 95 100 95 94 94 94 91 92 96 86 85 95 90 81 74 74 74 67 60 61
62 65 69 73 78 78 80 83 85 88 90 94 101 97 95 95 93 98 100 97 91 93 94 93 87 88 84 79 63 57 47 91 94 80 70 68 77 67 55 58 63 61 58
63 68 73 76 80 81 80 83 86 83 91 94 97 99 99 95 97 98 92 88 84 81 80 79 76 62 49 42 39 43 42 40 53 60 46 60 69 45 45 38 37 56 63
67 71 75 78 79 79 82 84 86 85 88 90 93 93 95 96 94 92 91 86 85 78 74 63 49 40 37 39 43 41 51 51 38 34 29 37 38 36 37 27 38 51 64
68 72 75 78 79 80 82 85 88 87 89 91 90 89 89 90 89 88 86 88 81 72 57 41 41 36 39 33 33 33 37 49 50 38 31 37 40 36 35 30 28 44 58
69 72 75 76 78 80 83 87 88 86 92 94 90 87 84 84 85 83 86 80 77 40 47 60 36 27 26 25 25 23 30 36 34 37 42 40 35 31 38 28 19 41 44
Wind_Direction
351 355 1 360 357 359 352 347 343 342 339 339 340 338 335 332 330 332 334 332 335 335 335 334 334 334 331 331 332 330 328 326 322 319 316 312 310 305 299 297 295 292 290
357 1 1 357 355 355 353 348 344 341 340 339 337 336 335 331 334 336 336 337 338 337 337 338 334 333 331 330 330 327 325 324 322 320 319 317 316 315 311 305 301 297 293
1 0 357 352 352 350 349 344 341 340 339 338 336 336 336 335 341 339 339 339 337 336 336 334 332 330 328 328 326 324 322 319 318 316 315 313 313 311 310 308 305 303 299
359 360 355 351 351 349 348 344 342 342 341 341 340 339 336 338 343 343 342 339 339 336 335 333 332 330 329 326 324 323 321 319 317 315 315 314 311 310 309 308 306 303 301
1 1 354 352 351 349 346 344 342 342 342 339 339 336 335 339 341 338 341 339 339 336 335 333 332 330 328 327 326 324 322 321 320 318 316 315 313 310 307 305 303 302 301
4 1 358 352 350 348 347 348 348 346 346 340 338 334 336 342 338 335 338 339 338 337 335 333 331 330 328 327 325 323 321 318 316 314 313 311 309 308 306 304 302 299 297
2 2 358 355 354 353 353 352 351 348 348 341 343 339 340 336 333 333 336 334 334 333 333 332 330 328 326 325 324 322 320 318 317 315 314 312 310 307 305 303 301 299 297
2 2 1 358 356 355 355 353 352 349 348 345 341 340 333 334 336 323 330 331 330 330 327 328 326 324 323 322 321 319 318 317 316 314 312 310 308 306 304 301 299 297 295
4 3 1 359 359 359 355 354 352 349 346 347 347 344 333 327 324 331 325 328 325 327 325 324 323 322 321 319 318 316 316 314 313 312 311 309 307 305 302 300 298 295 293
1 0 360 359 359 358 354 352 350 349 349 345 346 345 341 334 328 323 327 323 327 323 323 322 321 320 319 318 317 315 314 313 312 311 309 308 307 304 302 300 297 295 293
358 358 358 357 356 355 352 351 349 348 347 344 342 339 337 334 332 326 320 323 323 324 322 322 321 318 318 317 316 315 314 313 311 310 309 307 306 304 303 301 298 296 293
354 354 354 354 353 351 350 349 347 346 345 343 340 338 336 333 329 327 323 322 320 322 322 319 320 319 319 318 316 315 314 312 311 309 308 307 306 305 303 301 299 296 294
346 348 350 349 348 348 347 347 345 344 342 339 339 337 336 334 333 330 325 322 320 321 323 323 323 322 321 318 317 316 314 312 311 310 309 307 306 304 303 301 299 296 294
346 347 347 346 346 345 345 344 342 341 340 338 337 336 336 335 334 331 328 324 320 321 321 321 323 321 321 320 318 316 313 312 311 309 308 307 305 304 302 300 298 297 294
344 344 344 344 343 343 342 341 339 338 338 338 337 337 335 334 333 331 329 326 322 319 319 323 323 323 320 318 316 316 314 312 311 309 309 307 305 303 301 299 296 294 292
342 342 342 341 341 341 339 339 338 338 337 337 337 335 333 332 331 331 329 326 323 319 316 320 320 321 320 319 317 315 314 312 311 311 310 308 306 303 301 299 297 294 292
340 339 339 339 339 337 337 337 337 338 337 336 335 334 332 331 331 330 329 327 323 321 316 317 319 320 317 316 316 316 314 314 312 310 310 309 308 307 305 304 301 298 294
339 339 339 338 337 337 337 337 337 337 336 335 334 332 331 331 330 330 329 326 324 322 319 318 318 319 318 317 316 315 314 313 311 311 311 311 311 310 309 308 306 303 299
339 339 338 336 336 336 336 338 337 336 336 335 334 333 331 330 328 329 327 326 325 323 322 319 319 320 320 320 318 316 314 313 312 312 312 312 313 312 310 308 307 304 302
337 337 337 336 337 337 338 337 337 336 335 335 334 334 332 330 328 328 327 326 326 324 324 322 321 322 322 324 322 320 316 316 314 315 314 314 312 311 312 311 308 304 302
337 337 336 337 338 338 338 337 337 337 336 336 336 335 334 333 331 330 329 329 327 326 325 326 324 325 327 327 325 326 323 320 321 320 313 316 318 318 315 313 309 305 304
337 338 338 338 337 338 337 337 338 338 338 337 335 336 336 335 334 332 331 329 329 329 328 327 331 330 329 330 331 331 325 291 289 327 328 326 324 324 323 321 316 312 307
337 338 338 338 337 338 338 338 338 339 338 338 337 337 336 336 334 334 333 331 331 335 335 333 331 330 322 317 314 299 300 297 284 305 285 280 329 325 327 321 274 259 256
337 337 337 337 338 338 339 339 339 339 339 339 338 338 336 336 337 336 336 340 338 337 336 337 335 329 325 304 293 291 284 283 290 304 297 298 328 318 326 310 268 261 260
337 337 338 338 339 339 341 340 339 339 339 338 338 338 338 337 339 340 341 340 341 342 345 342 342 303 300 304 297 295 290 287 288 295 333 331 332 321 324 293 272 258 258
338 339 339 340 341 341 341 341 341 341 339 338 339 339 340 341 341 343 342 343 344 343 350 351 342 339 334 326 316 314 295 291 304 314 351 340 320 322 335 319 310 267 261